GW5391 Weather Reports


time (UTC)temp
C
wind
direction
speed
KPH
gust
KPH
rain 1hr
cm
rain 24hr
cm
rain mn
cm
humidity
%
barometer
mb
20260504214504 26 96 16.1 27.4 0.00 0.00 0.00 55 1013.4
20260504214003 26 102 16.1 27.4 0.00 0.00 0.00 55 1013.4
20260504213503 26 108 14.5 24.1 0.00 0.00 0.00 55 1013.4
20260504212504 26 113 16.1 27.4 0.00 0.00 0.00 56 1013.4
20260504212004 26 109 17.7 29.0 0.00 0.00 0.00 56 1013.3
20260504211504 26 105 16.1 29.0 0.00 0.00 0.00 55 1013.3
20260504211004 26 96 14.5 22.5 0.00 0.00 0.00 55 1013.3
20260504210504 26 89 14.5 29.0 0.00 0.00 0.00 56 1013.4
20260504210004 26 96 16.1 29.0 0.00 0.00 0.00 56 1013.4
20260504205504 26 101 17.7 30.6 0.00 0.00 0.00 56 1013.5
20260504205004 26 97 19.3 33.8 0.00 0.00 0.00 55 1013.5
20260504204004 26 102 20.9 33.8 0.00 0.00 0.00 54 1013.5
20260504203504 27 102 19.3 33.8 0.00 0.00 0.00 53 1013.4
20260504203004 27 104 20.9 37.0 0.00 0.00 0.00 53 1013.5
20260504202504 27 102 19.3 37.0 0.00 0.00 0.00 54 1013.5
20260504202003 26 105 17.7 30.6 0.00 0.00 0.00 55 1013.4
20260504201504 26 105 17.7 30.6 0.00 0.00 0.00 53 1013.4
20260504201004 26 103 16.1 33.8 0.00 0.00 0.00 52 1013.6
20260504200504 27 103 16.1 33.8 0.00 0.00 0.00 52 1013.6
20260504200004 27 99 14.5 24.1 0.00 0.00 0.00 51 1013.6
20260504195504 27 86 12.9 22.5 0.00 0.00 0.00 50 1013.8
20260504195003 27 100 11.3 22.5 0.00 0.00 0.00 50 1013.8
20260504194503 27 114 14.5 32.2 0.00 0.00 0.00 52 1013.9
20260504194003 27 93 16.1 32.2 0.00 0.00 0.00 50 1013.9
20260504193504 27 79 14.5 24.1 0.00 0.00 0.00 51 1013.9
20260504193003 27 90 12.9 24.1 0.00 0.00 0.00 50 1013.8
20260504192504 27 100 11.3 17.7 0.00 0.00 0.00 52 1014.0
20260504192003 27 102 12.9 22.5 0.00 0.00 0.00 50 1014.1
20260504191503 27 89 14.5 27.4 0.00 0.00 0.00 49 1014.1
20260504190504 27 71 11.3 24.1 0.00 0.00 0.00 48 1014.2
20260504190004 28 88 9.7 24.1 0.00 0.00 0.00 48 1014.3
20260504185504 27 101 8.0 17.7 0.00 0.00 0.00 49 1014.5
20260504185004 27 97 8.0 17.7 0.00 0.00 0.00 50 1014.5
20260504184503 27 78 9.7 22.5 0.00 0.00 0.00 50 1014.6
20260504184003 27 80 12.9 22.5 0.00 0.00 0.00 49 1014.7
20260504183504 27 82 11.3 22.5 0.00 0.00 0.00 49 1014.8
20260504183004 27 76 8.0 22.5 0.00 0.00 0.00 48 1014.8
20260504182003 27 90 9.7 20.9 0.00 0.00 0.00 47 1014.9
20260504181503 27 108 9.7 17.7 0.00 0.00 0.00 48 1014.9
20260504181004 27 117 8.0 17.7 0.00 0.00 0.00 47 1014.8
20260504180503 27 111 6.4 20.9 0.00 0.00 0.00 47 1015.0
20260504180004 27 121 6.4 20.9 0.00 0.00 0.00 47 1015.0
20260504175003 27 103 9.7 20.9 0.00 0.00 0.00 44 1015.1
20260504174504 27 99 9.7 22.5 0.00 0.00 0.00 47 1015.3
20260504174004 27 49 8.0 22.5 0.00 0.00 0.00 46 1015.2
20260504173504 27 12 9.7 17.7 0.00 0.00 0.00 47 1015.2
20260504173004 27 6 11.3 17.7 0.00 0.00 0.00 45 1015.3
20260504172503 27 358 9.7 16.1 0.00 0.00 0.00 46 1015.3
20260504172004 27 1 8.0 16.1 0.00 0.00 0.00 46 1015.4
20260504171503 26 356 8.0 16.1 0.00 0.00 0.00 45 1015.4
20260504170505 26 358 9.7 16.1 0.00 0.00 0.00 45 1015.5
20260504151004 25 27 12.9 25.7 0.00 0.00 0.00 48 1016.6
20260504141004 23 35 12.9 24.1 0.00 0.00 0.00 62 1016.4
20260504140504 23 27 14.5 25.7 0.00 0.00 0.00 62 1016.4
20260504110505 18 18 6.4 11.3 0.00 0.00 0.00 81 1015.2
20260504100504 18 17 8.0 14.5 0.00 0.00 0.00 82 1014.8
20260504082004 19 8 6.4 12.9 0.00 0.00 0.00 80 1014.8
20260504081503 19 8 6.4 9.7 0.00 0.00 0.00 79 1014.9
20260504081003 19 11 6.4 12.9 0.00 0.00 0.00 79 1014.8
20260504050503 20 41 4.8 8.0 0.00 0.00 0.00 75 1016.0
20260504045003 20 28 1.6 4.8 0.00 0.00 0.00 75 1016.2
20260504044003 20 37 3.2 8.0 0.00 0.00 0.00 75 1016.2
20260504043503 20 40 3.2 8.0 0.00 0.00 0.00 74 1016.2
20260504043005 20 23 3.2 6.4 0.00 0.00 0.00 74 1016.3
20260504042504 20 20 3.2 6.4 0.00 0.00 0.00 74 1016.4
20260504041504 20 29 3.2 8.0 0.00 0.00 0.00 74 1016.3
20260504041004 20 32 3.2 8.0 0.00 0.00 0.00 74 1016.3
20260504040005 20 36 4.8 9.7 0.00 0.03 0.00 73 1016.3
20260504035504 20 31 4.8 8.0 0.00 0.03 0.03 73 1016.4
20260504035004 20 37 4.8 12.9 0.00 0.05 0.03 73 1016.5
20260504034503 20 38 6.4 12.9 0.00 0.05 0.03 73 1016.4
20260504034004 20 33 8.0 12.9 0.00 0.05 0.03 72 1016.4
20260504033504 20 34 8.0 14.5 0.00 0.05 0.03 72 1016.5
20260504033004 20 40 8.0 16.1 0.00 0.05 0.03 72 1016.4
20260504032503 21 43 9.7 16.1 0.00 0.05 0.03 72 1016.4
20260504032003 21 48 9.7 16.1 0.00 0.05 0.03 72 1016.4
20260504031503 21 53 8.0 16.1 0.00 0.05 0.03 72 1016.4
20260504031004 21 47 9.7 16.1 0.00 0.05 0.03 72 1016.4
20260504030504 21 39 9.7 16.1 0.00 0.05 0.03 72 1016.3
20260504030004 21 35 9.7 16.1 0.00 0.05 0.03 72 1016.3
20260504025504 21 43 8.0 16.1 0.00 0.05 0.03 72 1016.3
20260504024004 21 37 8.0 16.1 0.00 0.05 0.03 72 1016.4
20260504023504 21 41 9.7 17.7 0.00 0.05 0.03 71 1016.4
20260504021004 21 39 4.8 11.3 0.00 0.05 0.03 71 1016.0
20260504020504 21 45 6.4 14.5 0.00 0.05 0.03 71 1015.9
20260504020004 21 54 8.0 16.1 0.00 0.05 0.03 71 1015.9
20260504015503 21 63 8.0 17.7 0.00 0.05 0.03 71 1015.9
20260504015004 21 65 9.7 17.7 0.00 0.05 0.03 70 1015.8
20260504014504 21 59 9.7 16.1 0.00 0.05 0.03 70 1015.7
20260504014004 21 65 11.3 20.9 0.00 0.05 0.03 70 1015.7
20260504013003 21 62 9.7 20.9 0.00 0.05 0.03 70 1015.5
20260504012503 21 58 8.0 16.1 0.00 0.05 0.03 70 1015.6
20260504012003 21 67 11.3 20.9 0.00 0.05 0.03 70 1015.6
20260504011504 21 71 11.3 20.9 0.00 0.05 0.03 69 1015.5
20260504011004 21 73 11.3 19.3 0.00 0.05 0.03 69 1015.4
20260504010504 21 69 9.7 16.1 0.00 0.05 0.03 69 1015.4
20260504010004 21 64 11.3 20.9 0.00 0.05 0.03 70 1015.4
20260504005504 21 67 9.7 20.9 0.00 0.05 0.03 69 1015.4
20260504005004 21 62 8.0 17.7 0.00 0.05 0.03 69 1015.4
20260504004503 22 58 9.7 17.7 0.00 0.05 0.03 68 1015.3
20260504004004 22 61 9.7 17.7 0.00 0.05 0.03 68 1015.3
20260504003504 22 63 8.0 17.7 0.00 0.05 0.03 67 1015.2
20260504003003 22 69 9.7 17.7 0.00 0.05 0.03 67 1015.2
20260504002505 22 77 9.7 17.7 0.00 0.05 0.03 67 1015.1
20260504002004 22 82 11.3 22.5 0.00 0.05 0.03 66 1014.9
20260504001505 22 79 11.3 22.5 0.00 0.05 0.03 66 1014.9
20260504001004 22 73 12.9 27.4 0.00 0.05 0.03 65 1014.9
20260504000504 22 68 11.3 27.4 0.00 0.05 0.03 65 1014.8
20260504000004 22 66 9.7 20.9 0.00 0.05 0.03 64 1014.8
20260503235504 22 67 11.3 20.9 0.00 0.05 0.03 64 1014.8
20260503235004 23 67 12.9 22.5 0.00 0.05 0.03 63 1014.8
20260503234504 23 65 11.3 22.5 0.00 0.05 0.03 63 1014.7
20260503233004 23 71 9.7 20.9 0.00 0.05 0.03 61 1014.6
20260503232504 23 84 11.3 20.9 0.00 0.05 0.03 61 1014.5
20260503232004 23 78 12.9 20.9 0.00 0.05 0.03 60 1014.5
20260503231003 23 67 11.3 24.1 0.00 0.05 0.03 60 1014.6
20260503230504 23 64 11.3 19.3 0.00 0.05 0.03 60 1014.5
20260503230004 23 58 11.3 22.5 0.00 0.05 0.03 60 1014.6
20260503225504 23 55 12.9 22.5 0.00 0.05 0.03 59 1014.6
20260503223504 24 42 11.3 19.3 0.00 0.05 0.03 58 1014.5
20260503223004 25 47 12.9 25.7 0.00 0.05 0.03 57 1014.6
20260503222503 25 67 12.9 25.7 0.00 0.05 0.03 57 1014.5
20260503222004 25 65 11.3 24.1 0.00 0.05 0.03 56 1014.4
20260503221504 25 45 12.9 25.7 0.00 0.05 0.03 57 1014.4
20260503221004 25 39 12.9 25.7 0.00 0.05 0.03 57 1014.4
20260503220504 25 43 14.5 25.7 0.00 0.05 0.03 56 1014.4
20260503220003 25 41 12.9 25.7 0.00 0.05 0.03 55 1014.3
20260503215504 26 24 11.3 20.9 0.00 0.05 0.03 55 1014.4